Weather History for Detroit Lakes, MN

Change the Weather History Date:

Sunday, March 3, 2013

  Actual Average Record
Temperature  
Mean Temperature 24 °F -  
Max Temperature 30 °F 29 °F 48 °F (1946)
Min Temperature 17 °F 6 °F -23 °F (1943)
Degree Days  
Heating Degree Days 42    
Moisture  
Dew Point 13 °F    
Average Humidity 59    
Maximum Humidity 79    
Minimum Humidity 47    
Precipitation  
Precipitation 0.00 in - - ()
Sea Level Pressure  
Sea Level Pressure 29.94 in    
Wind  
Wind Speed 11 mph (SE)    
Max Wind Speed 21 mph    
Max Gust Speed 29 mph    
Visibility 10 miles    
Events      
Averages and records for this station are not official NWS values.
T = Trace of Precipitation, MM = Missing Value Source: NWS Daily Summary

Daily Weather History Graph

Daily Weather History Graph

Search for Another Location

Airport:

Trip Planner

Search our weather history database for the weather conditions in past years. The results will help you decide how hot, cold, wet, or windy it might be!

Date:

Astronomy

Mar. 03, 2013 Rise Set
Actual Time 6:58 AM CST 6:12 PM CST
Civil Twilight 6:28 AM CST 6:42 PM CST
Nautical Twilight 5:53 AM CST 7:18 PM CST
Astronomical Twilight 5:18 AM CST 7:53 PM CST
Moon 12:15 AM CST (3/3) 9:50 AM CST (3/3)
Length of Visible Light 12h 14m
Length of Day
11h 13m
Waning Gibbous, 63% of the Moon is Illuminated
Mar 3
Waning Gibbous
Mar 4
Last Quarter
Mar 11
New
Mar 19
First Quarter
Mar 27
Full

Hourly Weather History & Observations

Time (CST) Temp. Windchill Dew Point Humidity Pressure Visibility Wind Dir Wind Speed Gust Speed Precip Events Conditions
12:15 AM 23.0 °F 13.9 °F 12.2 °F 63% 30.05 in 10.0 mi SSE 8.1 mph - N/A   Overcast
12:36 AM 23.0 °F 14.7 °F 12.2 °F 63% 30.05 in 10.0 mi SSE 6.9 mph - N/A   Overcast
12:56 AM 23.0 °F 15.8 °F 12.2 °F 63% 30.05 in 10.0 mi SSE 5.8 mph - N/A   Overcast
1:15 AM 23.0 °F 14.7 °F 12.2 °F 63% 30.05 in 10.0 mi SSE 6.9 mph - N/A   Overcast
1:35 AM 23.0 °F 15.8 °F 12.2 °F 63% 30.05 in 10.0 mi SSE 5.8 mph - N/A   Overcast
1:56 AM 23.0 °F 17.0 °F 12.2 °F 63% 30.04 in 10.0 mi SSE 4.6 mph - N/A   Overcast
2:15 AM 23.0 °F 17.0 °F 12.2 °F 63% 30.04 in 10.0 mi SE 4.6 mph - N/A   Mostly Cloudy
2:35 AM 21.2 °F 14.9 °F 12.2 °F 68% 30.03 in 10.0 mi SE 4.6 mph - N/A   Scattered Clouds
3:15 AM 21.2 °F 13.6 °F 10.4 °F 63% 30.02 in 10.0 mi ESE 5.8 mph - N/A   Scattered Clouds
3:35 AM 21.2 °F 13.6 °F 10.4 °F 63% 30.01 in 10.0 mi SE 5.8 mph - N/A   Scattered Clouds
3:55 AM 21.2 °F 12.6 °F 10.4 °F 63% 30.01 in 10.0 mi SE 6.9 mph - N/A   Clear
4:15 AM 21.2 °F 13.6 °F 10.4 °F 63% 30.01 in 10.0 mi SE 5.8 mph - N/A   Scattered Clouds
4:36 AM 21.2 °F 13.6 °F 10.4 °F 63% 30.01 in 10.0 mi SE 5.8 mph - N/A   Clear
4:55 AM 21.2 °F 12.6 °F 10.4 °F 63% 30.01 in 10.0 mi SE 6.9 mph - N/A   Clear
5:15 AM 19.4 °F 10.4 °F 12.2 °F 74% 30.01 in 10.0 mi SE 6.9 mph - N/A   Clear
5:35 AM 19.4 °F 10.4 °F 12.2 °F 74% 30.01 in 10.0 mi SE 6.9 mph - N/A   Clear
6:16 AM 17.6 °F 8.2 °F 12.2 °F 79% 30.00 in 10.0 mi SE 6.9 mph - N/A   Clear
6:35 AM 17.6 °F 8.2 °F 12.2 °F 79% 30.00 in 10.0 mi SE 6.9 mph - N/A   Clear
6:55 AM 17.6 °F 8.2 °F 12.2 °F 79% 30.00 in 10.0 mi SE 6.9 mph - N/A   Clear
7:16 AM 17.6 °F 8.2 °F 12.2 °F 79% 30.00 in 10.0 mi SE 6.9 mph - N/A   Clear
7:36 AM 17.6 °F 8.2 °F 10.4 °F 73% 29.99 in 10.0 mi SSE 6.9 mph - N/A   Clear
7:55 AM 19.4 °F 7.9 °F 10.4 °F 68% 29.98 in 10.0 mi SE 10.4 mph - N/A   Clear
8:16 AM 19.4 °F 6.0 °F 12.2 °F 74% 29.98 in 10.0 mi SE 13.8 mph - N/A   Clear
8:36 AM 19.4 °F 5.5 °F 12.2 °F 74% 29.98 in 10.0 mi SE 15.0 mph - N/A   Clear
8:55 AM 19.4 °F 6.0 °F 12.2 °F 74% 29.98 in 10.0 mi SE 13.8 mph - N/A   Clear
9:16 AM 21.2 °F 8.3 °F 12.2 °F 68% 29.97 in 10.0 mi SE 13.8 mph - N/A   Clear
9:36 AM 23.0 °F 10.6 °F 14.0 °F 68% 29.97 in 10.0 mi SE 13.8 mph - N/A   Clear
9:55 AM 23.0 °F 11.1 °F 14.0 °F 68% 29.96 in 10.0 mi SE 12.7 mph - N/A   Clear
10:16 AM 24.8 °F 11.9 °F 15.8 °F 69% 29.95 in 10.0 mi SE 16.1 mph - N/A   Clear
10:35 AM 26.6 °F 13.8 °F 15.8 °F 64% 29.95 in 10.0 mi SE 17.3 mph 21.9 mph N/A   Clear
10:55 AM 26.6 °F 13.4 °F 17.6 °F 69% 29.94 in 10.0 mi SE 18.4 mph - N/A   Clear
11:16 AM 28.4 °F 15.4 °F 17.6 °F 64% 29.94 in 7.0 mi SE 19.6 mph 23.0 mph N/A   Mostly Cloudy
11:35 AM 28.4 °F 16.2 °F 17.6 °F 64% 29.94 in 10.0 mi SE 17.3 mph 21.9 mph N/A   Scattered Clouds
11:55 AM 28.4 °F 16.6 °F 15.8 °F 59% 29.93 in 10.0 mi SE 16.1 mph - N/A   Scattered Clouds
12:16 PM 28.4 °F 16.6 °F 15.8 °F 59% 29.93 in 10.0 mi SE 16.1 mph 21.9 mph N/A   Overcast
12:35 PM 28.4 °F 16.2 °F 15.8 °F 59% 29.91 in 10.0 mi SE 17.3 mph 24.2 mph N/A   Overcast
12:55 PM 30.2 °F 17.8 °F 15.8 °F 55% 29.91 in 10.0 mi SE 19.6 mph 24.2 mph N/A   Overcast
1:16 PM 28.4 °F 15.4 °F 14.0 °F 55% 29.91 in 10.0 mi SE 19.6 mph - N/A   Overcast
1:35 PM 30.2 °F 19.3 °F 14.0 °F 51% 29.91 in 10.0 mi SE 15.0 mph - N/A   Overcast
1:55 PM 30.2 °F 18.5 °F 12.2 °F 47% 29.90 in 10.0 mi SE 17.3 mph - N/A   Overcast
2:16 PM 30.2 °F 18.1 °F 12.2 °F 47% 29.89 in 10.0 mi SE 18.4 mph 23.0 mph N/A   Overcast
2:35 PM 30.2 °F 18.1 °F 12.2 °F 47% 29.89 in 10.0 mi SE 18.4 mph 23.0 mph N/A   Overcast
2:55 PM 30.2 °F 18.5 °F 12.2 °F 47% 29.89 in 10.0 mi SE 17.3 mph - N/A   Mostly Cloudy
3:16 PM 30.2 °F 18.5 °F 12.2 °F 47% 29.89 in 10.0 mi SE 17.3 mph - N/A   Overcast
3:55 PM 30.2 °F 18.5 °F 12.2 °F 47% 29.88 in 10.0 mi SE 17.3 mph 25.3 mph N/A   Scattered Clouds
4:16 PM 30.2 °F 19.3 °F 14.0 °F 51% 29.88 in 10.0 mi SE 15.0 mph - N/A   Clear
4:35 PM 30.2 °F 18.9 °F 14.0 °F 51% 29.87 in 10.0 mi SE 16.1 mph 26.5 mph N/A   Clear
4:55 PM 30.2 °F 18.5 °F 12.2 °F 47% 29.88 in 10.0 mi SE 17.3 mph 23.0 mph N/A   Scattered Clouds
5:16 PM 30.2 °F 18.9 °F 12.2 °F 47% 29.88 in 10.0 mi SE 16.1 mph 20.7 mph N/A   Mostly Cloudy
5:35 PM 30.2 °F 19.8 °F 14.0 °F 51% 29.89 in 10.0 mi SE 13.8 mph 19.6 mph N/A   Overcast
5:55 PM 30.2 °F 20.2 °F 14.0 °F 51% 29.89 in 10.0 mi SE 12.7 mph - N/A   Overcast
6:16 PM 30.2 °F 19.3 °F 14.0 °F 51% 29.89 in 10.0 mi SE 15.0 mph 23.0 mph N/A   Mostly Cloudy
6:35 PM 30.2 °F 18.9 °F 14.0 °F 51% 29.89 in 10.0 mi SE 16.1 mph 25.3 mph N/A   Mostly Cloudy
6:55 PM 30.2 °F 19.3 °F 14.0 °F 51% 29.88 in 10.0 mi SE 15.0 mph 23.0 mph N/A   Scattered Clouds
7:15 PM 30.2 °F 19.3 °F 14.0 °F 51% 29.88 in 10.0 mi SE 15.0 mph 20.7 mph N/A   Scattered Clouds
7:35 PM 30.2 °F 18.5 °F 14.0 °F 51% 29.88 in 10.0 mi SE 17.3 mph 26.5 mph N/A   Mostly Cloudy
7:56 PM 28.4 °F 15.8 °F 12.2 °F 51% 29.88 in 10.0 mi SE 18.4 mph 25.3 mph N/A   Overcast
8:15 PM 28.4 °F 16.6 °F 12.2 °F 51% 29.88 in 10.0 mi SE 16.1 mph 21.9 mph N/A   Overcast
8:36 PM 28.4 °F 15.8 °F 12.2 °F 51% 29.87 in 10.0 mi SE 18.4 mph 23.0 mph N/A   Mostly Cloudy
8:56 PM 28.4 °F 16.2 °F 12.2 °F 51% 29.86 in 10.0 mi SE 17.3 mph 25.3 mph N/A   Scattered Clouds
9:15 PM 28.4 °F 15.4 °F 12.2 °F 51% 29.86 in 10.0 mi SE 19.6 mph 26.5 mph N/A   Scattered Clouds
9:36 PM 28.4 °F 16.6 °F 10.4 °F 47% 29.86 in 10.0 mi SE 16.1 mph 21.9 mph N/A   Scattered Clouds
9:56 PM 28.4 °F 15.4 °F 10.4 °F 47% 29.86 in 10.0 mi SE 19.6 mph 25.3 mph N/A   Scattered Clouds
10:15 PM 28.4 °F 16.6 °F 10.4 °F 47% 29.86 in 10.0 mi SE 16.1 mph 26.5 mph N/A   Scattered Clouds
10:36 PM 28.4 °F 15.1 °F 10.4 °F 47% 29.85 in 10.0 mi SE 20.7 mph 26.5 mph N/A   Scattered Clouds
10:56 PM 28.4 °F 15.4 °F 10.4 °F 47% 29.85 in 10.0 mi SE 19.6 mph 27.6 mph N/A   Scattered Clouds
11:15 PM 28.4 °F 15.4 °F 10.4 °F 47% 29.85 in 10.0 mi SE 19.6 mph 28.8 mph N/A   Scattered Clouds
11:36 PM 28.4 °F 15.1 °F 10.4 °F 47% 29.85 in 10.0 mi SE 20.7 mph 26.5 mph N/A   Mostly Cloudy
11:55 PM 28.4 °F 15.8 °F 12.2 °F 51% 29.86 in 10.0 mi SE 18.4 mph 25.3 mph N/A   Overcast